Lilypad — WDD9770 — position and weather

sailwx.info

Track history (hours):
 
Tides and Currents Weather Stations Pressure Air Temp Water Temp Dewpoint Dewpoint Depression Visibility Wind Speed Wind Dir Waves Ship Positions

Lilypad

More information available from US FCC via Universal Licensing System and Coast Guard Vessel Documentation Center.

Last reported at 2014-Sep-16 17:33 UTC. Time now 2014-Sep-20 03:58 UTC.
Position N 33°45' W 118°07'.

Length 18 m; draft 6.9 m.

Type: Pleasure craft. MMSI: 367316110.

Date/timePositionNaut miles runAvg speedWind from/ knotsBaromVisibWave heightAir tempDewpointWater temp
2014-Sep-16 17:33N 33°45' W 118°07'8 7.7
2014-Sep-16 16:34N 33°42' W 118°16'8 7.8
2014-Sep-16 15:33N 33°44' W 118°25'8 7.9
2014-Sep-16 14:33N 33°52' W 118°27'7 0.1
2014-Sep-14 14:10N 33°59' W 118°27'3 4.8
2014-Sep-14 13:33N 33°58' W 118°30'9 7.9
2014-Sep-14 12:22N 33°57' W 118°42'6 7.9
2014-Sep-14 11:34N 33°59' W 118°49'8 7.7
2014-Sep-14 10:33N 34°02' W 118°58'8 8.0
2014-Sep-14 09:34N 34°04' W 119°07'8 7.8
2014-Sep-14 08:33N 34°06' W 119°16'8 7.4
2014-Sep-14 07:31N 34°09' W 119°25'7 7.4
2014-Sep-14 06:33N 34°11' W 119°33'8 7.6
2014-Sep-14 05:33N 34°13' W 119°42'8 7.7
2014-Sep-14 04:33N 34°16' W 119°51'7 7.2
2014-Sep-14 03:34N 34°18' W 119°59'7 7.3
2014-Sep-14 02:33N 34°20' W 120°07'7 7.3
2014-Sep-14 01:33N 34°23' W 120°16'62 7.4
2014-Sep-13 17:10N 35°09' W 121°06'6 7.1
2014-Sep-13 16:20N 35°14' W 121°10'16 7.4
2014-Sep-13 14:13N 35°27' W 121°20'5 7.3
2014-Sep-13 13:32N 35°31' W 121°23'7 7.6
2014-Sep-13 12:34N 35°37' W 121°28'8 7.8
2014-Sep-13 11:33N 35°44' W 121°33'8 7.5
2014-Sep-13 10:33N 35°50' W 121°38'7 7.4
2014-Sep-13 09:34N 35°57' W 121°43'7 7.5
2014-Sep-13 08:33N 36°03' W 121°47'7 7.4
2014-Sep-13 07:33N 36°09' W 121°52'7 7.3
2014-Sep-13 06:33N 36°16' W 121°57'8 7.7
2014-Sep-13 05:34N 36°23' W 122°01'8 8.2
2014-Sep-13 04:33N 36°30' W 122°05'8 7.9
2014-Sep-13 03:34N 36°38' W 122°08'8 8.1
2014-Sep-13 02:33N 36°45' W 122°12'8 8.3
2014-Sep-13 01:33N 36°53' W 122°16'8 8.2
2014-Sep-13 00:34N 37°00' W 122°20'9 8.7
2014-Sep-12 23:34N 37°08' W 122°24'8 8.4
2014-Sep-12 22:33N 37°16' W 122°28'8 8.2
2014-Sep-12 21:33N 37°24' W 122°31'8 8.2
2014-Sep-12 20:33N 37°32' W 122°33'9 8.3
2014-Sep-12 19:31N 37°41' W 122°33'7 7.1
2014-Sep-12 18:33N 37°47' W 122°32'5 4.9
2014-Sep-12 17:33N 37°52' W 122°29'0 0.0
2014-Sep-12 16:33N 37°52' W 122°29'  
2014-Sep-08 17:10N 37°52' W 122°29'3 4.7
2014-Sep-08 16:33N 37°49' W 122°29'9 9.0
2014-Sep-08 15:32N 37°52' W 122°40'8 8.2
2014-Sep-08 14:33N 37°55' W 122°50'8 8.1
2014-Sep-08 13:33N 37°58' W 122°59'7 7.5
2014-Sep-08 12:33N 38°03' W 123°06'8 8.1
2014-Sep-08 11:33N 38°10' W 123°11'8 8.0
2014-Sep-08 10:34N 38°17' W 123°16'8 8.1
2014-Sep-08 09:33N 38°24' W 123°22'8 8.2
2014-Sep-08 08:33N 38°31' W 123°27'9 8.3
2014-Sep-08 07:30N 38°38' W 123°33'  
Track history (hours):
 
Tides and Currents Weather Stations Pressure Air Temp Water Temp Dewpoint Dewpoint Depression Visibility Wind Speed Wind Dir Waves Ship Positions

Lilypad

More information available from US FCC via Universal Licensing System and Coast Guard Vessel Documentation Center.

Last reported at 2014-Sep-16 17:33 UTC. Time now 2014-Sep-20 03:58 UTC.
Position N 33°45' W 118°07'.

Length 18 m; draft 6.9 m.

Type: Pleasure craft. MMSI: 367316110.

Date/timePositionNaut miles runAvg speedWind from/ knotsBaromVisibWave heightAir tempDewpointWater temp
2014-Sep-16 17:33N 33°45' W 118°07'8 7.7
2014-Sep-16 16:34N 33°42' W 118°16'8 7.8
2014-Sep-16 15:33N 33°44' W 118°25'8 7.9
2014-Sep-16 14:33N 33°52' W 118°27'7 0.1
2014-Sep-14 14:10N 33°59' W 118°27'3 4.8
2014-Sep-14 13:33N 33°58' W 118°30'9 7.9
2014-Sep-14 12:22N 33°57' W 118°42'6 7.9
2014-Sep-14 11:34N 33°59' W 118°49'8 7.7
2014-Sep-14 10:33N 34°02' W 118°58'8 8.0
2014-Sep-14 09:34N 34°04' W 119°07'8 7.8
2014-Sep-14 08:33N 34°06' W 119°16'8 7.4
2014-Sep-14 07:31N 34°09' W 119°25'7 7.4
2014-Sep-14 06:33N 34°11' W 119°33'8 7.6
2014-Sep-14 05:33N 34°13' W 119°42'8 7.7
2014-Sep-14 04:33N 34°16' W 119°51'7 7.2
2014-Sep-14 03:34N 34°18' W 119°59'7 7.3
2014-Sep-14 02:33N 34°20' W 120°07'7 7.3
2014-Sep-14 01:33N 34°23' W 120°16'62 7.4
2014-Sep-13 17:10N 35°09' W 121°06'6 7.1
2014-Sep-13 16:20N 35°14' W 121°10'16 7.4
2014-Sep-13 14:13N 35°27' W 121°20'5 7.3
2014-Sep-13 13:32N 35°31' W 121°23'7 7.6
2014-Sep-13 12:34N 35°37' W 121°28'8 7.8
2014-Sep-13 11:33N 35°44' W 121°33'8 7.5
2014-Sep-13 10:33N 35°50' W 121°38'7 7.4
2014-Sep-13 09:34N 35°57' W 121°43'7 7.5
2014-Sep-13 08:33N 36°03' W 121°47'7 7.4
2014-Sep-13 07:33N 36°09' W 121°52'7 7.3
2014-Sep-13 06:33N 36°16' W 121°57'8 7.7
2014-Sep-13 05:34N 36°23' W 122°01'8 8.2
2014-Sep-13 04:33N 36°30' W 122°05'8 7.9
2014-Sep-13 03:34N 36°38' W 122°08'8 8.1
2014-Sep-13 02:33N 36°45' W 122°12'8 8.3
2014-Sep-13 01:33N 36°53' W 122°16'8 8.2
2014-Sep-13 00:34N 37°00' W 122°20'9 8.7
2014-Sep-12 23:34N 37°08' W 122°24'8 8.4
2014-Sep-12 22:33N 37°16' W 122°28'8 8.2
2014-Sep-12 21:33N 37°24' W 122°31'8 8.2
2014-Sep-12 20:33N 37°32' W 122°33'9 8.3
2014-Sep-12 19:31N 37°41' W 122°33'7 7.1
2014-Sep-12 18:33N 37°47' W 122°32'5 4.9
2014-Sep-12 17:33N 37°52' W 122°29'0 0.0
2014-Sep-12 16:33N 37°52' W 122°29'  
2014-Sep-08 17:10N 37°52' W 122°29'3 4.7
2014-Sep-08 16:33N 37°49' W 122°29'9 9.0
2014-Sep-08 15:32N 37°52' W 122°40'8 8.2
2014-Sep-08 14:33N 37°55' W 122°50'8 8.1
2014-Sep-08 13:33N 37°58' W 122°59'7 7.5
2014-Sep-08 12:33N 38°03' W 123°06'8 8.1
2014-Sep-08 11:33N 38°10' W 123°11'8 8.0
2014-Sep-08 10:34N 38°17' W 123°16'8 8.1
2014-Sep-08 09:33N 38°24' W 123°22'8 8.2
2014-Sep-08 08:33N 38°31' W 123°27'9 8.3
2014-Sep-08 07:30N 38°38' W 123°33'  

Dump ship's entire track history